STARLINK-37701, 69306

Orbit data source: Space-Track

STARLINK-37701, 69306 is a payload satellite owned by SpaceX/Seattle (US) in SSO that was launched on Sat, 30 May 2026 UTC via an FALCON 9 launch vehicle from the Air Force Western Test Range (AFWTR). Payload-class satellites include a variety of spacecraft equipped with specific instruments for various scientific and technological missions. These include communications satellites like Starlink; space stations such as the ISS; scientific satellites like the Hubble; Earth observation satellites from companies like Planet Labs, Umbra, and HawkEye 360; GPS; miniature CubeSats for education and research; and military/defense satellites.

Loading next visibility...
Identifier
69306, 2026-119L
Orbit
SSO
Country
Flag of USUS
Related business
Manufacturer
SpaceX/Seattle
Mission
Operational Commercial Communications
Bus & Motor
STARLINK V2MO, Unknown motor
Mass
575 kg wet, ~530 kg dry
Launch date (UTC)
2026-05-30 (4 months ago)
Launch vehicle
FALCON 9
Launch site
Air Force Western Test Range (AFWTR)
Object type
Payload
Rocket body
Debris
Shape & HBR
Box + 1 Pan, 17.7 m
Radar Cross Section
41.120 m², Large (>1 m²)

Expand to show TLE details & history
Last TLE update: 13 hours ago

TLE from 13 hours ago
0 STARLINK-37701
1 69306U 26119L   26264.61268675 -.00009500  00000-0 -29244-3 0  9994
2 69306  97.2834 289.3271 0001304  92.5985 267.5406 15.33429411 18830
Epoch: 2026-09-21T14:42Z
TLE epoch observation values (Epoch: 2026-09-21T14:42:16.135Z)
Latitude
-0.00011°
Longitude
68.26987°
Altitude
468.74 km
Speed
7.632 km/s
True Right ascension
19h 17m 18s
True Declination
0° 00' 00"
Sunlit
Object was in daylight at epoch
Visualization orbit readout
Latitude
Unknown
Longitude
Unknown
Altitude
Unknown
Speed
Unknown
Apparent Right ascension
Unknown
Apparent Declination
Unknown
Sunlit
N/A
Visualization observer readout
Local Sidereal Time
21:02:38
Azimuth
Unknown
Elevation
Unknown
Doppler factor
Unknown
Orbital elements
Apogee altitude
463.424 km
Perigee altitude
461.64 km
Semi-major axis
6,840.669 km
Eccentricity
0.00013
Inclination
97.2834°
RAAN
289.3271°
Arg. of periapsis
92.5985°
True anomaly
267.52567°
Mean anomaly
267.5406°
Eccentric anomaly
267.53314°
Mean motion
3.83615 °/min
Orbital period
93.84 mins
BSTAR
-0.00029244
Loading maneuver chart data...
Computing Atmospheric mass density...
Loading historical data...
Loading historical data...
Loading historical data...
Loading historical data...
Loading historical data...
Loading historical data...
Loading historical data...

Documentation

Showing up to 5 results
|